TimePDT,TemperatureF,Dew PointF,Humidity,Sea Level PressureIn,VisibilityMPH,Wind Direction,Wind SpeedMPH,Gust SpeedMPH,PrecipitationIn,Events,Conditions,WindDirDegrees,DateUTC
12:15 AM,73.4,57.2,57,29.91,10.0,NW,6.9,-,N/A,,Clear,310,2013-09-04 07:15:00
12:35 AM,73.4,57.2,57,29.91,10.0,NW,8.1,-,N/A,,Clear,310,2013-09-04 07:35:00
12:55 AM,73.4,55.4,53,29.91,10.0,NW,9.2,-,N/A,,Clear,310,2013-09-04 07:55:00
1:15 AM,71.6,55.4,57,29.91,10.0,NW,6.9,-,N/A,,Clear,320,2013-09-04 08:15:00
1:35 AM,71.6,55.4,57,29.92,10.0,NW,8.1,-,N/A,,Clear,310,2013-09-04 08:35:00
1:55 AM,69.8,55.4,60,29.91,10.0,NW,8.1,-,N/A,,Clear,310,2013-09-04 08:55:00
2:15 AM,69.8,55.4,60,29.92,10.0,NW,8.1,-,N/A,,Clear,310,2013-09-04 09:15:00
2:35 AM,69.8,53.6,56,29.92,10.0,NW,6.9,-,N/A,,Clear,320,2013-09-04 09:35:00
2:55 AM,68.0,53.6,60,29.92,10.0,NW,6.9,-,N/A,,Clear,310,2013-09-04 09:55:00
3:15 AM,68.0,53.6,60,29.92,10.0,NW,6.9,-,N/A,,Clear,310,2013-09-04 10:15:00
3:35 AM,66.2,53.6,64,29.92,10.0,NW,6.9,-,N/A,,Clear,310,2013-09-04 10:35:00
3:55 AM,66.2,53.6,64,29.92,10.0,NW,5.8,-,N/A,,Clear,310,2013-09-04 10:55:00
4:15 AM,66.2,53.6,64,29.92,10.0,NW,3.5,-,N/A,,Clear,310,2013-09-04 11:15:00
4:35 AM,66.2,53.6,64,29.92,10.0,NW,4.6,-,N/A,,Clear,310,2013-09-04 11:35:00
4:55 AM,66.2,53.6,64,29.92,10.0,WNW,4.6,-,N/A,,Clear,300,2013-09-04 11:55:00
5:15 AM,66.2,53.6,64,29.93,10.0,WNW,4.6,-,N/A,,Clear,300,2013-09-04 12:15:00
5:35 AM,64.4,53.6,68,29.93,10.0,WNW,4.6,-,N/A,,Clear,290,2013-09-04 12:35:00
5:55 AM,64.4,53.6,68,29.93,10.0,WNW,4.6,-,N/A,,Clear,290,2013-09-04 12:55:00
6:15 AM,64.4,53.6,68,29.94,10.0,WNW,3.5,-,N/A,,Clear,300,2013-09-04 13:15:00
6:35 AM,64.4,53.6,68,29.95,10.0,WNW,3.5,-,N/A,,Clear,300,2013-09-04 13:35:00
6:55 AM,64.4,53.6,68,29.95,10.0,WNW,3.5,-,N/A,,Clear,300,2013-09-04 13:55:00
7:15 AM,64.4,53.6,68,29.96,10.0,Calm,Calm,-,N/A,,Clear,0,2013-09-04 14:15:00
7:35 AM,64.4,53.6,68,29.97,10.0,WNW,4.6,-,N/A,,Clear,300,2013-09-04 14:35:00
7:55 AM,66.2,53.6,64,29.97,10.0,Calm,Calm,-,N/A,,Clear,0,2013-09-04 14:55:00
8:15 AM,66.2,53.6,64,29.98,10.0,Calm,Calm,-,N/A,,Clear,0,2013-09-04 15:15:00
8:35 AM,68.0,53.6,60,29.97,10.0,Calm,Calm,-,N/A,,Clear,0,2013-09-04 15:35:00
8:55 AM,69.8,55.4,60,29.98,10.0,Calm,Calm,-,N/A,,Clear,0,2013-09-04 15:55:00
9:15 AM,71.6,55.4,57,29.98,10.0,Calm,Calm,-,N/A,,Clear,0,2013-09-04 16:15:00
9:35 AM,71.6,55.4,57,29.99,10.0,Calm,Calm,-,N/A,,Clear,0,2013-09-04 16:35:00
9:55 AM,73.4,55.4,53,29.99,10.0,WSW,3.5,-,N/A,,Clear,250,2013-09-04 16:55:00
10:15 AM,75.2,57.2,53,29.98,10.0,WNW,3.5,-,N/A,,Clear,300,2013-09-04 17:15:00
10:35 AM,75.2,55.4,50,29.98,10.0,NW,3.5,-,N/A,,Clear,310,2013-09-04 17:35:00
10:55 AM,77.0,57.2,50,29.98,10.0,NW,3.5,-,N/A,,Clear,320,2013-09-04 17:55:00
11:15 AM,77.0,55.4,47,29.97,10.0,Calm,Calm,-,N/A,,Clear,0,2013-09-04 18:15:00
11:35 AM,80.6,57.2,45,29.97,10.0,WNW,4.6,-,N/A,,Clear,300,2013-09-04 18:35:00
11:55 AM,82.4,59.0,45,29.96,10.0,WNW,6.9,-,N/A,,Clear,300,2013-09-04 18:55:00
12:15 PM,82.4,60.8,48,29.96,10.0,WNW,6.9,-,N/A,,Clear,300,2013-09-04 19:15:00
12:35 PM,84.2,60.8,45,29.95,10.0,WNW,6.9,-,N/A,,Clear,290,2013-09-04 19:35:00
12:55 PM,86.0,60.8,43,29.94,10.0,West,9.2,-,N/A,,Clear,270,2013-09-04 19:55:00
1:15 PM,87.8,60.8,40,29.93,10.0,NW,5.8,-,N/A,,Clear,320,2013-09-04 20:15:00
1:35 PM,87.8,60.8,40,29.93,10.0,WNW,6.9,-,N/A,,Clear,290,2013-09-04 20:35:00
1:55 PM,87.8,60.8,40,29.92,10.0,WNW,9.2,-,N/A,,Clear,290,2013-09-04 20:55:00
2:15 PM,89.6,60.8,38,29.91,10.0,West,8.1,-,N/A,,Clear,260,2013-09-04 21:15:00
2:35 PM,89.6,60.8,38,29.90,10.0,West,8.1,-,N/A,,Clear,280,2013-09-04 21:35:00
2:55 PM,89.6,60.8,38,29.89,10.0,WNW,8.1,-,N/A,,Clear,300,2013-09-04 21:55:00
3:15 PM,91.4,62.6,38,29.88,10.0,West,8.1,-,N/A,,Clear,280,2013-09-04 22:15:00
3:35 PM,91.4,60.8,36,29.87,10.0,North,5.8,-,N/A,,Clear,350,2013-09-04 22:35:00
3:55 PM,91.4,60.8,36,29.87,10.0,West,6.9,-,N/A,,Clear,270,2013-09-04 22:55:00
4:15 PM,91.4,62.6,38,29.86,10.0,WNW,11.5,-,N/A,,Clear,290,2013-09-04 23:15:00
4:35 PM,93.2,62.6,36,29.85,10.0,NW,8.1,-,N/A,,Clear,310,2013-09-04 23:35:00
4:55 PM,91.4,62.6,38,29.84,10.0,WNW,9.2,-,N/A,,Clear,290,2013-09-04 23:55:00
5:15 PM,91.4,62.6,38,29.84,10.0,WNW,9.2,-,N/A,,Clear,290,2013-09-05 00:15:00
5:35 PM,91.4,62.6,38,29.84,10.0,WNW,8.1,-,N/A,,Clear,290,2013-09-05 00:35:00
5:55 PM,91.4,62.6,38,29.84,10.0,West,6.9,-,N/A,,Clear,280,2013-09-05 00:55:00
6:15 PM,89.6,62.6,40,29.84,10.0,WNW,8.1,-,N/A,,Clear,300,2013-09-05 01:15:00
6:35 PM,89.6,62.6,40,29.84,10.0,WNW,6.9,-,N/A,,Clear,290,2013-09-05 01:35:00
6:55 PM,87.8,62.6,43,29.84,10.0,WNW,6.9,-,N/A,,Clear,290,2013-09-05 01:55:00
7:15 PM,86.0,60.8,43,29.84,10.0,WNW,6.9,-,N/A,,Clear,300,2013-09-05 02:15:00
7:35 PM,84.2,60.8,45,29.85,10.0,WNW,5.8,-,N/A,,Clear,290,2013-09-05 02:35:00
7:55 PM,84.2,60.8,45,29.85,10.0,WNW,6.9,-,N/A,,Clear,300,2013-09-05 02:55:00
8:15 PM,82.4,60.8,48,29.86,10.0,WNW,8.1,-,N/A,,Clear,300,2013-09-05 03:15:00
8:35 PM,82.4,60.8,48,29.87,10.0,WNW,5.8,-,N/A,,Clear,300,2013-09-05 03:35:00
8:55 PM,80.6,60.8,51,29.87,10.0,WNW,9.2,-,N/A,,Clear,300,2013-09-05 03:55:00
9:15 PM,80.6,59.0,48,29.88,10.0,WNW,9.2,-,N/A,,Clear,300,2013-09-05 04:15:00
9:35 PM,80.6,57.2,45,29.89,10.0,WNW,6.9,-,N/A,,Clear,300,2013-09-05 04:35:00
9:55 PM,78.8,57.2,47,29.89,10.0,NW,8.1,-,N/A,,Clear,310,2013-09-05 04:55:00
10:15 PM,77.0,57.2,50,29.90,10.0,NW,6.9,-,N/A,,Clear,310,2013-09-05 05:15:00
10:35 PM,77.0,57.2,50,29.90,10.0,NW,9.2,-,N/A,,Clear,310,2013-09-05 05:35:00
10:55 PM,75.2,57.2,53,29.91,10.0,NW,8.1,-,N/A,,Clear,310,2013-09-05 05:55:00
11:15 PM,75.2,57.2,53,29.91,10.0,NW,6.9,-,N/A,,Clear,310,2013-09-05 06:15:00
11:35 PM,75.2,57.2,53,29.91,10.0,NW,6.9,-,N/A,,Clear,320,2013-09-05 06:35:00
11:55 PM,75.2,55.4,50,29.91,10.0,NNW,5.8,-,N/A,,Clear,330,2013-09-05 06:55:00